Location: Oberkirch
(48.5323°N, 8.0787°E)
Time: 00:27:24
(UTC+00:00)

CUTE 1.7 + AOD 2 - Pass Details

Date: 23 March 2026
Orbit: 535 x 545 km, 97.8° (Epoch: 14 April)

Event Time Altitude Azimuth Distance (km) Brightness Sun altitude
Rises 04:48:07 0° 4° (N) 2,724 ? -6.9°
Reaches altitude 10° 04:50:25 10° 354° (N) 1,827 ? -6.5°
Maximum altitude 04:53:52 30° 293° (WNW) 1,010 ? -5.9°
Drops below altitude 10° 04:57:17 10° 232° (SW) 1,814 ? -5.3°
Sets 04:59:34 0° 221° (SW) 2,702 ? -5.0°
